Location: Treviso
(45.6669°N, 12.2430°E)
Time: 16:04:49
(UTC+02:00)

ISS - Pass Details

Date: 21 May 2018
Orbit: 402 x 407 km, 51.6° (Epoch: 23 May)

Event Time Altitude Azimuth Distance (km) Brightness Sun altitude
Rises 02:20:30 0° 295° (WNW) 2,320 0.1 -22.1°
Reaches altitude 10° 02:22:44 10° 306° (NW) 1,460 -0.8 -22.0°
Maximum altitude 02:25:42 31° 11° (N) 732 -1.9 -21.8°
Drops below altitude 10° 02:28:40 10° 76° (ENE) 1,457 -0.6 -21.7°
Sets 02:30:53 0° 87° (E) 2,315 0.3 -21.5°
